Regional Weather Roundup
Issued by NWS Tiyan, Guam

Home | Current Version | Previous Version | Text Only | Print | Product List | Glossary On
Versions: 1 2 3 4 5 6 7 8 9 10 11 12 13 14 15 16 17 18 19 20 21 22 23 24 25 26 27
000
ASGM40 PGUM 240412
RWRGUM
WEATHER ROUNDUP FOR THE MARIANAS
NATIONAL WEATHER SERVICE TIYAN GU
200 PM CHST THU AUG 24 2017

GUZ001>004-240500-
MARIANA ISLANDS-

CITY           SKY/WX    TMP DP  RH WIND       PRES   REMARKS
GUAM AIRPORT   SUNNY     84  79  84 NE9       29.78F HX  96
ANDERSEN AFB   MOSUNNY   82  77  83 NE10      29.84F HX  91
ROTA AIRPORT   PTSUNNY   81  73  78 E10       29.80F
TINIAN AP      PTSUNNY   81  77  89 E8        29.80R
SAIPAN AP      SUNNY     86  79  79 E10       29.81R HX  99

$$





USA.gov is the U.S. government's official web portal to all federal, state and local government web resources and services.